Location: Berg
(47.2344°N, 9.5296°E)
Time: 22:59:40
(UTC+00:00)

Meteor 2-15 Rocket - Pass Details

Date: 24 January 2021
Orbit: 939 x 955 km, 82.5° (Epoch: 04 March)

Event Time Altitude Azimuth Distance (km) Brightness Sun altitude
Rises 18:07:14 0° 353° (N) 3,646 7.5 -19.4°
Reaches altitude 10° 18:09:48 10° 357° (N) 2,696 6.8 -19.8°
Maximum altitude 18:15:54 59° 77° (ENE) 1,102 4.4 -20.8°
Drops below altitude 10° 18:21:56 10° 156° (SSE) 2,677 6.6 -21.9°
Sets 18:24:28 0° 160° (SSE) 3,617 7.3 -22.3°
